Wetterdaten Sommer 2018

Datum T max T min Regen
01.06.2018 25.2 °C 15.1 °C 6.2 mm
02.06.2018 25.2 °C 14.1 °C 0.2 mm
03.06.2018 29.2 °C 13.2 °C 0 mm
04.06.2018 30.4 °C 14.4 °C 0 mm
05.06.2018 29.3 °C 15.9 °C 0 mm
06.06.2018 30.3 °C 15 °C 0 mm
07.06.2018 27.3 °C 17.2 °C 23.8 mm
08.06.2018 29.3 °C 15.2 °C 7.2 mm
09.06.2018 26.6 °C 16.6 °C 23.4 mm
10.06.2018 29 °C 15.9 °C 0 mm
11.06.2018 26.7 °C 16.6 °C 2 mm
12.06.2018 21.8 °C 15 °C 24.6 mm
13.06.2018 16.8 °C 12.8 °C 0.2 mm
14.06.2018 22.6 °C 12.6 °C 0 mm
15.06.2018 23.9 °C 11.9 °C 0 mm
16.06.2018 27.3 °C 11.1 °C 0 mm
17.06.2018 23.3 °C 16.3 °C 0 mm
18.06.2018 24.6 °C 14.9 °C 0 mm
19.06.2018 27.6 °C 12.9 °C 0 mm
20.06.2018 31.5 °C 14.7 °C 0 mm
21.06.2018 25.6 °C 13.4 °C 0 mm
22.06.2018 17.5 °C 8.5 °C 0 mm
23.06.2018 21 °C 6.9 °C 0 mm
24.06.2018 20.2 °C 9.8 °C 0 mm
25.06.2018 23.4 °C 13.6 °C 0 mm
26.06.2018 21.9 °C 12.4 °C 0 mm
27.06.2018 26.3 °C 10.3 °C 0 mm
28.06.2018 22.9 °C 10.9 °C 0.8 mm
29.06.2018 28.3 °C 15.9 °C 0 mm
30.06.2018 29.6 °C 14.1 °C 0 mm
01.07.2018 26.8 °C 14.3 °C 0 mm
02.07.2018 29.1 °C 10.7 °C 0 mm
03.07.2018 30.4 °C 12.4 °C 0 mm
04.07.2018 27 °C 15.8 °C 10.2 mm
05.07.2018 22 °C 15.8 °C 3 mm
06.07.2018 26.8 °C 16.5 °C 2.8 mm
07.07.2018 26.8 °C 13.2 °C 0 mm
08.07.2018 28 °C 14.9 °C 0 mm
09.07.2018 28.2 °C 11.6 °C 0 mm
10.07.2018 22.2 °C 15.2 °C 0 mm
11.07.2018 21.4 °C 13.4 °C 0 mm
12.07.2018 26.4 °C 15.4 °C 0 mm
13.07.2018 29.4 °C 11.8 °C 0 mm
14.07.2018 28.5 °C 15.7 °C 0 mm
15.07.2018 26.2 °C 15.1 °C 0 mm
16.07.2018 27.8 °C 16.1 °C 2 mm
17.07.2018 28.8 °C 15.2 °C 0 mm
18.07.2018 27.6 °C 14.5 °C 0 mm
19.07.2018 28.4 °C 12.7 °C 0 mm
20.07.2018 29.8 °C 15.2 °C 0 mm
21.07.2018 21.6 °C 17.3 °C 3.4 mm
22.07.2018 22.8 °C 17.1 °C 13 mm
23.07.2018 27.1 °C 16.4 °C 0 mm
24.07.2018 30.4 °C 15.6 °C 0 mm
25.07.2018 32 °C 16.6 °C 0 mm
26.07.2018 31.3 °C 17.4 °C 0 mm
27.07.2018 31.1 °C 16.7 °C 0 mm
28.07.2018 30.2 °C 18.6 °C 2 mm
29.07.2018 30.2 °C 18.4 °C 0 mm
30.07.2018 32.6 °C 17.3 °C 0 mm
31.07.2018 34.5 °C 18.1 °C 0 mm
01.08.2018 30.8 °C 19.9 °C 1.8 mm
02.08.2018 30.1 °C 18.6 °C 8.8 mm
03.08.2018 33.4 °C 19.1 °C 0 mm
04.08.2018 34.1 °C 19.4 °C 0 mm
05.08.2018 31.2 °C 21 °C 0 mm
06.08.2018 32.1 °C 16.8 °C 0 mm
07.08.2018 30.4 °C 21.3 °C 0 mm
08.08.2018 30.8 °C 18.3 °C 0.4 mm
09.08.2018 31.9 °C 20.1 °C 1.2 mm
10.08.2018 23.8 °C 14.4 °C 0 mm
11.08.2018 24.6 °C 13.8 °C 0 mm
12.08.2018 29.8 °C 11.2 °C 0 mm
13.08.2018 22.7 °C 15.2 °C 0.8 mm
14.08.2018 25 °C 15.9 °C 0.2 mm
15.08.2018 25.4 °C 13.8 °C 0 mm
16.08.2018 29.8 °C 12.9 °C 0 mm
17.08.2018 30.4 °C 15.8 °C 0 mm
18.08.2018 27.5 °C 16.1 °C 0.8 mm
19.08.2018 29.3 °C 15.6 °C 0 mm
20.08.2018 28.7 °C 14.8 °C 0 mm
21.08.2018 29.4 °C 15.3 °C 0 mm
22.08.2018 31.9 °C 15.7 °C 0 mm
23.08.2018 28.1 °C 16.9 °C 5.8 mm
24.08.2018 21.7 °C 15.7 °C 1.4 mm
25.08.2018 15.9 °C 11.1 °C 2.6 mm
26.08.2018 19.7 °C 7.1 °C 0 mm
27.08.2018 23.3 °C 12.1 °C 0 mm
28.08.2018 24.6 °C 12.8 °C 0 mm
29.08.2018 29.1 °C 12.2 °C 0 mm
30.08.2018 21.6 °C 14.9 °C 0.2 mm
31.08.2018 16.4 °C 13.2 °C 0.6 mm
 Hinweis zur Datenqualität
∅ Temperatur

20.6 °C

Abweichung vom Mittel

+1.9 °C

Niederschlag

149.4 mm

Abweichung vom Mittel

67 %

34.5 °C

Lufttemperatur
31.07.2018

1027 hPa

Luftdruck
23.06.2018

30.6 km/h

Windböen
09.08.2018

149.4 mm

Niederschlag
 

6.9 °C

Lufttemperatur
23.06.2018

7.8 °C

Bodentemperatur 5cm
01.01.1970

1007 hPa

Luftdruck
11.06.2018
 Hinweis zur Datenqualität